Weather History for KSHL - February, 2014

Change the Weather History Date:

Thursday, February 6, 2014

  Actual Average Record
Temperature  
Mean Temperature -5 °F -  
Max Temperature 3 °F 25 °F 54 °F (1987)
Min Temperature -13 °F 5 °F -19 °F (1982)
Degree Days  
Heating Degree Days 70    
Moisture  
Dew Point -13 °F    
Average Humidity 69    
Maximum Humidity 77    
Minimum Humidity 56    
Precipitation  
Precipitation 0.00 in - - ()
Sea Level Pressure  
Sea Level Pressure 30.40 in    
Wind  
Wind Speed 10 mph (West)    
Max Wind Speed 20 mph    
Max Gust Speed 24 mph    
Visibility 10 miles    
Events      
Averages and records for this station are not official NWS values.
T = Trace of Precipitation, MM = Missing Value Source: NWS Daily Summary

Daily Weather History Graph

Daily Weather History Graph

Search for Another Location

Airport or City:

Trip Planner

Search our weather history database for the weather conditions in past years. The results will help you decide how hot, cold, wet, or windy it might be!

Date:

Astronomy

Feb. 06, 2014 Rise Set
Actual Time 7:33 AM CST 5:42 PM CST
Civil Twilight 7:03 AM CST 6:12 PM CST
Nautical Twilight 6:29 AM CST 6:46 PM CST
Astronomical Twilight 5:56 AM CST 7:19 PM CST
Moon 11:14 AM CST (2/6) 12:49 AM CST (2/6)
Length of Visible Light 11h 09m
Length of Day
10h 09m
Waxing Crescent, 49% of the Moon is Illuminated
Feb 6
Waxing Crescent
Feb 6
First Quarter
Feb 14
Full
Feb 22
Last Quarter
Mar 1
New

Hourly Weather History & Observations

Time (CST) Temp. Windchill Dew Point Humidity Pressure Visibility Wind Dir Wind Speed Gust Speed Precip Events Conditions
12:15 AM -9.4 °F -26.8 °F -16.6 °F 71% 30.52 in 10.0 mi West 9.2 mph - N/A   Clear
12:35 AM -9.4 °F -28.9 °F -16.6 °F 71% 30.52 in 10.0 mi West 11.5 mph - N/A   Clear
12:55 AM -9.4 °F -27.9 °F -16.6 °F 71% 30.51 in 10.0 mi West 10.4 mph - N/A   Scattered Clouds
1:15 AM -9.4 °F -26.8 °F -16.6 °F 71% 30.51 in 10.0 mi West 9.2 mph - N/A   Mostly Cloudy
1:35 AM -11.2 °F -26.4 °F -16.6 °F 77% 30.51 in 10.0 mi West 6.9 mph - N/A   Scattered Clouds
1:55 AM -11.2 °F -27.8 °F -16.6 °F 77% 30.50 in 10.0 mi West 8.1 mph - N/A   Mostly Cloudy
2:15 AM -9.4 °F -25.6 °F -16.6 °F 71% 30.50 in 10.0 mi West 8.1 mph - N/A   Mostly Cloudy
2:35 AM -11.2 °F -24.8 °F -16.6 °F 77% 30.50 in 10.0 mi West 5.8 mph - N/A   Clear
2:55 AM -11.2 °F -27.8 °F -16.6 °F 77% 30.50 in 10.0 mi West 8.1 mph - N/A   Clear
3:15 AM -11.2 °F -27.8 °F -18.4 °F 70% 30.49 in 10.0 mi West 8.1 mph - N/A   Clear
3:35 AM -11.2 °F -30.1 °F -18.4 °F 70% 30.49 in 10.0 mi West 10.4 mph - N/A   Clear
3:55 AM -11.2 °F -27.8 °F -16.6 °F 77% 30.48 in 10.0 mi West 8.1 mph - N/A   Clear
4:15 AM -11.2 °F -27.8 °F -18.4 °F 70% 30.48 in 10.0 mi West 8.1 mph - N/A   Clear
4:35 AM -13.0 °F -25.1 °F -20.2 °F 70% 30.48 in 10.0 mi West 4.6 mph - N/A   Clear
4:55 AM -11.2 °F -29.0 °F -18.4 °F 70% 30.48 in 10.0 mi West 9.2 mph - N/A   Clear
5:15 AM -11.2 °F -24.8 °F -18.4 °F 70% 30.47 in 10.0 mi West 5.8 mph - N/A   Scattered Clouds
5:35 AM -13.0 °F -28.6 °F -18.4 °F 77% 30.48 in 10.0 mi West 6.9 mph - N/A   Overcast
5:55 AM -13.0 °F -25.1 °F -20.2 °F 70% 30.47 in 10.0 mi West 4.6 mph - N/A   Mostly Cloudy
6:15 AM -13.0 °F -28.6 °F -20.2 °F 70% 30.47 in 10.0 mi West 6.9 mph - N/A   Scattered Clouds
6:35 AM -13.0 °F -27.0 °F -20.2 °F 70% 30.47 in 10.0 mi West 5.8 mph - N/A   Mostly Cloudy
6:55 AM -13.0 °F -31.3 °F -18.4 °F 77% 30.46 in 10.0 mi West 9.2 mph - N/A   Partly Cloudy
7:15 AM -13.0 °F -31.3 °F -18.4 °F 77% 30.47 in 10.0 mi West 9.2 mph - N/A   Clear
7:35 AM -11.2 °F -29.0 °F -18.4 °F 70% 30.47 in 10.0 mi WSW 9.2 mph - N/A   Clear
7:55 AM -11.2 °F -30.1 °F -18.4 °F 70% 30.46 in 10.0 mi West 10.4 mph - N/A   Clear
8:15 AM -11.2 °F -30.1 °F -18.4 °F 70% 30.46 in 10.0 mi West 10.4 mph - N/A   Clear
8:35 AM -9.4 °F -29.8 °F -16.6 °F 71% 30.47 in 10.0 mi West 12.7 mph - N/A   Clear
8:55 AM -9.4 °F -27.9 °F -14.8 °F 77% 30.47 in 10.0 mi WSW 10.4 mph 16.1 mph N/A   Clear
9:15 AM -7.6 °F -25.7 °F -14.8 °F 71% 30.47 in 10.0 mi West 10.4 mph - N/A   Clear
9:35 AM -5.8 °F -23.4 °F -13.0 °F 71% 30.47 in 10.0 mi West 10.4 mph - N/A   Clear
9:55 AM -5.8 °F -25.2 °F -13.0 °F 71% 30.47 in 10.0 mi West 12.7 mph 19.6 mph N/A   Clear
10:15 AM -5.8 °F -25.2 °F -13.0 °F 71% 30.46 in 10.0 mi West 12.7 mph - N/A   Clear
10:35 AM -4.0 °F -23.0 °F -11.2 °F 71% 30.46 in 10.0 mi West 12.7 mph - N/A   Clear
10:55 AM -2.2 °F -20.7 °F -11.2 °F 66% 30.46 in 10.0 mi West 12.7 mph - N/A   Clear
11:15 AM -2.2 °F -19.9 °F -11.2 °F 66% 30.46 in 10.0 mi West 11.5 mph - N/A   Clear
11:35 AM -2.2 °F -21.5 °F -9.4 °F 71% 30.45 in 10.0 mi West 13.8 mph - N/A   Partly Cloudy
11:55 AM -0.4 °F -19.9 °F -9.4 °F 66% 30.44 in 10.0 mi West 15.0 mph - N/A   Clear
12:15 PM -0.4 °F -20.5 °F -7.6 °F 72% 30.42 in 10.0 mi West 16.1 mph - N/A   Clear
12:35 PM -0.4 °F -21.2 °F -7.6 °F 72% 30.41 in 10.0 mi West 17.3 mph - N/A   Clear
12:55 PM 1.4 °F -19.4 °F -7.6 °F 66% 30.40 in 10.0 mi West 18.4 mph - N/A   Partly Cloudy
1:15 PM 1.4 °F -18.8 °F -9.4 °F 61% 30.39 in 10.0 mi West 17.3 mph - N/A   Partly Cloudy
1:35 PM 1.4 °F -19.9 °F -7.6 °F 66% 30.39 in 10.0 mi West 19.6 mph - N/A   Clear
1:55 PM 3.2 °F -16.5 °F -9.4 °F 56% 30.37 in 10.0 mi West 17.3 mph 23.0 mph N/A   Clear
2:15 PM 3.2 °F -16.5 °F -7.6 °F 61% 30.36 in 10.0 mi West 17.3 mph 24.2 mph N/A   Clear
2:35 PM 3.2 °F -15.3 °F -7.6 °F 61% 30.35 in 10.0 mi West 15.0 mph - N/A   Partly Cloudy
2:55 PM 3.2 °F -17.1 °F -7.6 °F 61% 30.35 in 10.0 mi West 18.4 mph - N/A   Scattered Clouds
3:15 PM 3.2 °F -15.3 °F -7.6 °F 61% 30.35 in 10.0 mi West 15.0 mph - N/A   Mostly Cloudy
3:35 PM 3.2 °F -15.3 °F -7.6 °F 61% 30.34 in 10.0 mi West 15.0 mph - N/A   Mostly Cloudy
3:55 PM 3.2 °F -15.9 °F -5.8 °F 66% 30.34 in 10.0 mi West 16.1 mph - N/A   Mostly Cloudy
4:15 PM 3.2 °F -13.9 °F -5.8 °F 66% 30.33 in 10.0 mi West 12.7 mph - N/A   Scattered Clouds
4:35 PM 3.2 °F -16.5 °F -5.8 °F 66% 30.33 in 7.0 mi West 17.3 mph - N/A   Scattered Clouds
4:55 PM 3.2 °F -13.9 °F -5.8 °F 66% 30.33 in 10.0 mi West 12.7 mph 19.6 mph N/A   Mostly Cloudy
5:15 PM 3.2 °F -12.2 °F -5.8 °F 66% 30.32 in 10.0 mi West 10.4 mph - N/A   Overcast
5:35 PM 3.2 °F -15.3 °F -5.8 °F 66% 30.32 in 10.0 mi West 15.0 mph - N/A   Overcast
5:55 PM 1.4 °F -15.3 °F -7.6 °F 66% 30.32 in 10.0 mi West 11.5 mph - N/A   Overcast
6:15 PM 1.4 °F -16.1 °F -7.6 °F 66% 30.31 in 10.0 mi West 12.7 mph - N/A   Mostly Cloudy
6:35 PM -0.4 °F -16.7 °F -7.6 °F 72% 30.31 in 10.0 mi WSW 10.4 mph - N/A   Scattered Clouds
6:55 PM -0.4 °F -15.7 °F -9.4 °F 66% 30.32 in 10.0 mi WSW 9.2 mph - N/A   Clear
7:15 PM -2.2 °F -18.0 °F -9.4 °F 71% 30.31 in 10.0 mi WSW 9.2 mph - N/A   Clear
7:35 PM -0.4 °F -16.7 °F -9.4 °F 66% 30.31 in 10.0 mi WSW 10.4 mph - N/A   Clear
7:55 PM -2.2 °F -18.9 °F -9.4 °F 71% 30.30 in 10.0 mi WSW 10.4 mph - N/A   Clear
8:15 PM -2.2 °F -19.9 °F -9.4 °F 71% 30.30 in 10.0 mi WSW 11.5 mph - N/A   Clear
8:35 PM -2.2 °F -19.9 °F -9.4 °F 71% 30.30 in 10.0 mi WSW 11.5 mph - N/A   Clear
8:55 PM -2.2 °F -20.7 °F -11.2 °F 66% 30.30 in 10.0 mi WSW 12.7 mph - N/A   Clear
9:15 PM -2.2 °F -18.9 °F -11.2 °F 66% 30.29 in 10.0 mi West 10.4 mph - N/A   Clear
9:35 PM -2.2 °F -19.9 °F -11.2 °F 66% 30.29 in 10.0 mi WSW 11.5 mph - N/A   Clear
9:55 PM -4.0 °F -20.2 °F -13.0 °F 65% 30.29 in 10.0 mi SW 9.2 mph - N/A   Clear
10:15 PM -4.0 °F -21.2 °F -13.0 °F 65% 30.29 in 10.0 mi WSW 10.4 mph - N/A   Clear
10:35 PM -5.8 °F -21.2 °F -13.0 °F 71% 30.29 in 10.0 mi SW 8.1 mph - N/A   Clear
10:55 PM -5.8 °F -21.2 °F -14.8 °F 65% 30.28 in 10.0 mi WSW 8.1 mph - N/A   Clear
11:15 PM -5.8 °F -21.2 °F -14.8 °F 65% 30.28 in 10.0 mi SW 8.1 mph - N/A   Clear
11:35 PM -7.6 °F -23.4 °F -14.8 °F 71% 30.28 in 10.0 mi SW 8.1 mph - N/A   Clear
11:55 PM -7.6 °F -22.1 °F -14.8 °F 71% 30.28 in 10.0 mi SW 6.9 mph - N/A   Clear